Flag for Switzerland Weather past 2 weeks in Regensdorf, Zurich, Switzerland

Now
43 °F

Overcast.


Feels Like: 40 °F
Forecast: 32 / 45 °F
Wind: 5 mph from Northwest

Location: Zurich-Kloten

Current Time: Dec 21, 2014 at 2:04:20 PM

Latest Report: Dec 21, 2014 at 1:00 PM


Visibility: 19 mi

Pressure: 30.57 "Hg

Humidity: 68%

Dew point: 33 °F

Location of RegensdorfLocation

Historic Weather in Regensdorf — Graph

°F

Regensdorf temperature yesterday

Maximum temperature yesterday: 49 °F (at 12:00 AM)
Minimum temperature yesterday: 40 °F (at 5:00 PM)
Average temperature yesterday: 44 °F

Past Weeks' High & Low Weather Summary

 TemperatureHumidityPressure
High54 °F (Dec 19, 1:00 PM)100% (Dec 9, 4:00 AM)30.60 "Hg (Dec 9, 4:00 AM)
Low29 °F (Dec 9, 11:00 PM)42% (Dec 13, 2:00 PM)29.85 "Hg (Dec 12, 8:00 PM)
Average42 °F81%30.16 "Hg
* Reported Dec 6 12:00 Noon — Dec 21 12:00 Noon, Regensdorf, Weather by CustomWeather, © 2014

Note: Actual official high and low records may vary slightly from our data, if they occured in-between our weather recording intervals... More about our weather records

Advertising

Regensdorf weather history for previous 24 hours

 ConditionsComfort  
Time TempWeatherWind HumidityBarometerVisibility
12:00 PM
Dec 21
42 °FQuite cool.6 mph72%30.59 "HgN/A
11:00 AM42 °FQuite cool.5 mph70%30.60 "HgN/A
10:00 AM41 °FPartly sunny.5 mph76%30.59 "Hg19 mi
9:00 AM39 °FChilly.2 mph82%30.60 "HgN/A
8:00 AM39 °FChilly.3 mph82%30.60 "HgN/A
7:00 AM38 °FPassing clouds.3 mph83%30.59 "Hg16 mi
6:00 AM36 °FChilly.3 mph89%30.60 "HgN/A
5:00 AM39 °FChilly.3 mph80%30.58 "HgN/A
4:00 AM40 °FOvercast.5 mph77%30.57 "Hg19 mi
3:00 AM40 °FQuite cool.7 mph74%30.56 "HgN/A
2:00 AM41 °FQuite cool.8 mph70%30.54 "HgN/A
1:00 AM41 °FOvercast.8 mph69%30.53 "Hg16 mi
12:00 AM42 °FQuite cool.9 mph61%30.51 "HgN/A
11:00 PM
Dec 20
42 °FQuite cool.7 mph61%30.50 "HgN/A
9:00 PM42 °FQuite cool.9 mph57%30.47 "HgN/A
8:00 PM41 °FQuite cool.8 mph58%30.46 "HgN/A
7:00 PM41 °FPassing clouds.8 mph60%30.44 "Hg19 mi
6:00 PM40 °FQuite cool.14 mph64%30.42 "HgN/A
5:00 PM40 °FChilly.13 mph67%30.40 "HgN/A
4:00 PM41 °FPartly sunny.16 mph66%30.37 "Hg19 mi
3:00 PM43 °FQuite cool.16 mph65%30.35 "HgN/A
2:00 PM43 °FQuite cool.13 mph67%30.35 "HgN/A
Weather by CustomWeather, © 2014

See weather overviewHow to use our weather pages